COSMOS 886 DEB, 9951

Orbit data source: Space-Track

COSMOS 886 DEB, 9951 is space debris in LEO originally from a launch on Mon, 27 Dec 1976 UTC launched from the Tyuratam Missile And Space Complex (TTMTR). Debris objects in space refer to the collection of defunct objects orbiting the Earth. Examples of debris include non-operational satellites, rocket bodies, and fragments generated from explosions, collisions, or faulty payload assembly.

Loading next visibility...
Identifier
9951, 1976-126AR
Orbit
LEO
Country
Flag of CISCIS
Related business
Manufacturer
Unknown
Mission
Spacecraft
Bus & Motor
Unknown
Mass
Unknown
Launch date (UTC)
1976-12-27 (49 years ago)
Launch vehicle
Unknown
Launch site
Tyuratam Missile And Space Complex (TTMTR)
Object type
Payload
Rocket body
Debris
Shape & HBR
Unknown shape, 0.1 m
Radar Cross Section
Small (<0.1 m²)

Expand to show TLE details & history
Last TLE update: 16 hours ago

TLE from 16 hours ago
0 COSMOS 886 DEB
1  9951U 76126AR  26129.86896863  .00000885  00000-0  35786-3 0  9993
2  9951  65.8202 193.6837 0772235 112.5533 255.9067 13.32111577 54826
Epoch: 2026-05-09T20:51Z
TLE epoch observation values (Epoch: 2026-05-09T20:51:18.889Z)
Latitude
-0°
Longitude
13.17478°
Altitude
1,323.017 km
Speed
7.108 km/s
True Right ascension
12h 54m 44s
True Declination
0° 00' 00"
Sunlit
Object was in full shadow at epoch
Visualization orbit readout
Latitude
Unknown
Longitude
Unknown
Altitude
Unknown
Speed
Unknown
Apparent Right ascension
Unknown
Apparent Declination
Unknown
Sunlit
N/A
Visualization observer readout
Local Sidereal Time
21:19:02
Azimuth
Unknown
Elevation
Unknown
Doppler factor
Unknown
Orbital elements
Apogee altitude
1,717.718 km
Perigee altitude
556.974 km
Semi-major axis
7,515.483 km
Eccentricity
0.07722
Inclination
65.8202°
RAAN
193.6837°
Arg. of periapsis
112.5533°
True anomaly
247.5508°
Mean anomaly
255.9067°
Eccentric anomaly
251.70575°
Mean motion
3.33125 °/min
Orbital period
108.07 mins
BSTAR
0.00035786
Loading maneuver chart data...
Computing Atmospheric mass density...
Loading historical data...
Loading historical data...
Loading historical data...
Loading historical data...
Loading historical data...
Loading historical data...
Loading historical data...

Documentation

Showing up to 5 results
|